Date,TemperatureHighF,TemperatureAvgF,TemperatureLowF,DewpointHighF,DewpointAvgF,DewpointLowF,HumidityHigh,HumidityAvg,HumidityLow,PressureMaxIn,PressureMinIn,WindSpeedMaxMPH,WindSpeedAvgMPH,GustSpeedMaxMPH,PrecipitationSumIn
2013-1-2,37.8,35.5,32.5,31.3,28.2,23.1,83,75,66,29.48,29.20,13,6,13,0.00
2013-1-3,40.8,36.8,33.4,28.4,22.5,19.0,67,56,47,29.48,29.44,11,6,11,0.00
2013-1-4,33.4,29.8,27.7,20.2,16.9,14.8,62,58,55,29.72,29.49,11,7,11,0.00
2013-1-5,34.3,32.8,30.4,20.9,19.2,16.9,62,57,52,29.65,29.20,13,8,13,0.00
2013-1-6,34.0,31.7,30.0,21.5,18.8,16.7,64,59,53,29.27,28.94,17,9,17,0.00
2013-1-7,35.8,30.2,27.7,22.8,16.9,14.9,71,58,51,29.25,28.97,15,8,15,0.00
2013-1-8,27.9,20.2,13.6,16.4,12.7,9.7,84,73,58,29.90,29.27,8,2,8,0.00
2013-1-9,50.4,16.6,13.5,11.6,10.3,8.9,83,76,59,29.98,29.83,15,3,15,0.00
2013-1-10,22.8,20.9,20.1,14.4,13.1,10.7,78,72,59,29.86,29.83,16,12,16,0.00
2013-2-2,30.7,30.5,30.4,20.0,20.0,20.0,65,64,64,29.11,29.09,13,12,13,0.00
2013-2-3,35.4,33.7,30.0,24.5,22.6,19.7,66,63,60,29.08,28.94,17,6,17,0.00
2013-2-4,37.8,33.1,28.8,27.7,23.0,19.7,80,66,56,29.34,29.03,15,6,15,0.00
2013-2-5,33.4,28.0,23.4,19.7,15.2,12.8,65,58,46,29.32,29.16,14,6,14,0.00
2013-2-6,26.4,24.0,22.5,23.1,16.4,13.0,91,73,61,29.19,29.13,11,5,11,0.00
2013-2-7,26.1,23.5,20.7,19.0,14.2,12.2,89,68,58,29.25,28.98,18,11,18,0.00
2013-2-8,32.9,27.9,21.2,28.4,23.0,12.1,90,82,61,29.44,29.06,16,4,16,0.00
2013-2-9,39.0,32.9,28.9,26.7,20.3,17.5,65,60,51,29.42,28.82,27,12,27,0.00
2013-2-10,40.3,35.5,30.9,31.7,29.7,27.6,97,80,65,29.16,28.68,17,5,17,0.05
2013-2-11,30.2,24.5,16.7,29.5,21.4,14.3,98,88,68,29.43,29.17,0,0,0,0.00
2013-2-12,28.0,20.7,19.4,15.4,13.3,12.2,80,73,59,29.45,29.39,17,5,17,0.00
2013-2-13,30.7,27.9,24.3,17.8,15.8,12.5,63,60,57,29.51,29.41,17,11,17,0.01
2013-2-20,30.4,21.0,14.0,15.4,9.7,3.0,73,62,49,28.98,28.72,23,12,23,0.00
2013-2-21,30.9,21.3,15.8,12.5,9.1,6.1,70,59,44,28.94,28.78,14,6,14,0.00
2013-2-22,27.1,20.2,14.4,20.2,15.7,11.6,90,83,72,29.10,28.87,4,2,4,0.00
2013-2-23,26.8,22.1,13.6,17.3,11.4,9.0,90,64,50,29.08,28.82,26,11,26,0.00
2013-2-24,33.3,25.6,19.8,16.2,13.6,10.6,85,61,49,29.32,29.02,14,9,14,0.00
2013-2-25,34.0,26.9,22.1,14.3,12.0,9.5,60,53,43,29.36,29.28,24,14,24,0.00
2013-2-26,36.3,29.1,27.0,12.8,10.0,8.3,54,44,33,29.28,29.02,33,18,33,0.00
2013-2-27,28.6,28.1,27.3,14.2,13.5,8.8,55,54,45,29.03,28.98,24,15,24,0.02
2013-3-1,27.9,27.9,27.9,13.0,13.0,13.0,53,53,53,28.98,28.98,18,18,20,0.00
2013-3-8,41.7,36.8,33.1,33.4,26.4,18.9,82,67,50,29.44,29.26,17,9,17,0.00
2013-3-9,42.4,35.7,31.1,29.2,24.1,19.4,92,63,46,29.77,29.45,14,4,14,0.00
2013-3-10,34.7,30.1,25.7,29.2,26.3,22.1,95,86,64,29.87,29.75,6,2,6,0.01
2013-3-11,40.5,28.6,16.3,28.9,18.4,9.6,99,71,34,29.95,29.88,15,6,15,0.00
2013-3-12,30.9,26.3,21.9,11.8,0.6,-6.7,48,33,19,29.95,29.71,29,18,29,0.07
2013-3-13,25.7,21.3,16.2,-4.3,-9.6,-12.4,32,25,18,29.72,29.50,30,20,30,0.05
2013-3-14,22.1,16.4,11.3,0.1,-4.3,-9.2,44,39,34,29.56,29.44,33,23,33,0.22
2013-3-15,27.7,22.6,16.9,-1.2,-5.7,-7.8,43,28,22,29.54,29.37,29,17,29,0.24
2013-3-16,33.3,21.5,14.5,10.5,-1.5,-6.5,44,36,26,29.70,29.50,29,12,29,0.00
2013-3-18,31.6,17.5,0.9,8.3,2.2,-4.1,83,54,32,29.71,29.54,8,3,8,0.00
2013-3-19,28.2,20.0,9.1,7.6,-1.1,-6.4,79,41,24,29.55,29.51,21,11,21,0.00
2013-3-20,30.4,16.9,8.6,-2.0,-6.4,-8.7,55,36,20,29.64,29.52,19,9,19,0.00
2013-3-21,32.7,17.2,5.2,8.6,-4.4,-10.3,60,39,19,29.87,29.65,11,5,11,0.00
2013-3-22,26.8,21.3,16.7,22.4,16.5,10.4,89,82,68,29.82,29.47,18,8,18,0.00
2013-3-23,37.8,28.1,19.8,26.4,23.6,17.6,93,83,61,29.53,29.43,5,2,5,0.08
2013-3-24,25.5,22.1,16.3,23.8,18.1,14.7,94,85,73,29.52,29.25,4,2,4,0.00
2013-4-21,50.4,36.7,25.3,26.4,17.4,10.8,71,48,24,30.09,30.00,11,5,11,0.00
2013-4-22,54.5,41.4,29.5,26.1,21.6,15.5,76,48,24,30.19,30.08,8,5,8,0.00
2013-4-23,41.9,38.4,35.2,37.4,29.3,20.5,94,71,48,30.16,30.00,8,4,8,0.06
2013-4-24,44.8,37.0,32.5,37.1,34.2,31.3,99,90,69,30.00,29.50,8,2,8,0.01
2013-4-25,43.5,37.0,30.4,31.6,13.1,1.9,95,40,23,29.50,29.41,21,11,21,0.01
2013-4-26,46.2,33.7,26.1,17.6,7.5,1.7,57,34,21,29.47,29.15,26,12,26,0.00
2013-4-27,42.6,37.4,28.4,12.6,10.3,8.1,45,33,25,29.46,29.17,21,13,27,0.00
2013-5-4,33.8,33.3,33.3,32.5,32.5,32.3,97,97,96,29.51,29.51,2,1,2,0.00
2013-6-1,58.5,54.6,50.2,46.6,45.5,44.3,83,72,63,29.88,29.83,8,2,8,0.04
2013-6-2,55.4,48.1,45.0,47.9,44.4,39.1,97,87,71,29.91,29.76,8,2,8,0.25
2013-6-3,61.5,50.4,42.6,43.6,39.7,37.8,89,68,46,29.76,29.52,11,3,11,0.00
2013-6-23,64.8,64.1,63.5,49.2,48.2,47.1,57,56,55,29.33,29.33,4,1,4,0.00